Regional Weather Roundup
Issued by NWS

Home | Current Version | Previous Version | Graphics & Text | Print | Product List | Glossary On
Versions: 1 2 3 4 5 6 7 8 9 10 11 12 13 14 15 16 17 18 19 20 21 22 23 24 25 26 27 28 29 30 31 32 33 34 35 36 37 38 39 40 41 42 43 44 45 46 47 48 49 50
000
ASUS43 KFSD 011810
RWRSD

WEATHER ROUNDUP FOR SOUTH DAKOTA
NATIONAL WEATHER SERVICE SIOUX FALLS SD
100 PM CDT FRI AUG 01 2014

NOTE: "FAIR" INDICATES FEW OR NO CLOUDS BELOW 12,000 FEET WITH NO
SIGNIFICANT WEATHER AND/OR OBSTRUCTIONS TO VISIBILITY.


SDZ001>005-009-010-012>017-011900-
NORTHWEST AND NORTH CENTRAL SOUTH DAKOTA

CITY           SKY/WX    TMP DP  RH WIND       PRES   REMARKS
BUFFALO          N/A     85  51  31 VRB3      30.02S
FAITH            N/A     87  51  28 S7        30.06F
MOBRIDGE       SUNNY     84  60  44 SE12      30.04F
$$

SDZ012>016-024>037-041>051-057-063-072>074-011900-
SOUTHWEST AND SOUTH CENTRAL SOUTH DAKOTA

CITY           SKY/WX    TMP DP  RH WIND       PRES   REMARKS
RAPID CTY ARPT MOSUNNY   86  49  27 E6        30.09F
PIERRE         SUNNY     88  59  37 SE13      30.05S
CUSTER         MOSUNNY   81  38  21 W9        30.26F
ELLSWORTH AFB  MOSUNNY   81  50  34 S9G18     30.09F
PHILIP         SUNNY     92  50  23 MISG      30.05F
PINE RIDGE     SUNNY     87  50  27 VRB6      30.14S
WINNER         FAIR      86  53  32 S7        30.10S
$$

SDZ004>011-016>023-039-040-011900-
NORTHEAST SOUTH DAKOTA

CITY           SKY/WX    TMP DP  RH WIND       PRES   REMARKS
ABERDEEN       SUNNY     81  53  37 E6        30.09S
WATERTOWN      MOSUNNY   79  56  45 CALM      30.11S
SISSETON         N/A     83  62  49 N7        30.08S
$$

SDZ017-020-022-023-036>040-048>070-011900-
SOUTHEAST SOUTH DAKOTA

CITY           SKY/WX    TMP DP  RH WIND       PRES   REMARKS
SIOUX FALLS    MOSUNNY   80  57  45 NW3       30.12S
HURON          SUNNY     82  57  42 MISG      30.09S
CHAMBERLAIN    SUNNY     83  58  41 SE7       30.09F
MITCHELL       SUNNY     81  60  48 SE7       30.11S
YANKTON        SUNNY     79  61  53 E7        30.12S
$$

ABBREVIATIONS USED IN REMARKS
   TC - TEMPERATURE IN CELSIUS
  WCI - WIND CHILL INDEX
   HX - HEAT INDEX
  VSB - VISIBILITY




USA.gov is the U.S. government's official web portal to all federal, state and local government web resources and services.